Tracking 19827 objects as of 22-Aug-2019
HD Live streaming from Space Station
objects crossing your sky now

FENGYUN 1C DEB

Track FENGYUN 1C DEB now!
10-day predictions


NORAD ID: 30322
Int'l Code: 1999-025AAK
Perigee: 809.5 km
Apogee: 1,011.4 km
Inclination: 98.4 °
Period: 103.1 minutes
Semi major axis: 7281 km
RCS: 0.0387 m2 (small)
Launch date: May 10, 1999
Source: People's Republic of China (PRC)
Launch site: Taiyaun Space Center, China (TSC)

Note: This is SATELLITE DEBRIS
aabbcc
Your satellite tracking list
Your tracking list is empty




NASA's NSSDC Master Catalog

Two Line Element Set (TLE):
1 30322U 99025AAK 19233.00171546  .00000399  00000-0  28907-3 0  9997
2 30322  98.3780 238.0981 0138652 255.9643 102.6075 13.97248105640749
Source of the keplerian elements: AFSPC